AirNav   Air Wisconsin pilot careers
 
 294 users online  

U98 Idaho City USFS Airport
Idaho City, Idaho, USA

GOING TO IDAHO CITY?


FAA INFORMATION EFFECTIVE 24 MAY 2018

Location

FAA Identifier: U98
Lat/Long: 43-49-14.6150N / 115-51-03.3940W
43-49.243583N / 115-51.056567W
43.8207264 / -115.8509428
(estimated)
Elevation: 3920 ft. / 1195 m (estimated)
Variation: 17E (1985)
From city: 1 mile SW of IDAHO CITY, ID
Time zone: UTC -6 (UTC -7 during Standard Time)
Zip code: 83631

Airport Operations

Airport use: Open to the public
Activation date: 11/1948
Control tower: no
ARTCC: SALT LAKE CITY CENTER
FSS: BOISE FLIGHT SERVICE STATION
NOTAMs facility: BOI (NOTAM-D service available)
Attendance: UNATNDD
Wind indicator: yes
Segmented circle: yes

Airport Communications

CTAF: 122.9

Nearby radio navigation aids

VOR radial/distance  VOR name  Freq  Var
BOIr026/21.9BOISE VORTAC113.3017E

Airport Services

Airframe service: NONE
Powerplant service: NONE
Bottled oxygen: NONE
Bulk oxygen: NONE

Runway Information

Runway 4/22

Dimensions: 3400 x 50 ft. / 1036 x 15 m
Surface: gravel/dirt, in good condition
Runway edge markings: 04/22 EDGES & THRS MARKED WITH WHITE ROCK.
Operational restrictions: RECOMMEND LAND RY 04; TKOFF RY 22; WHEN WIND CONDITIONS PERMIT.
RUNWAY 4  RUNWAY 22
Gradient: 0.8%0.8%
Traffic pattern: leftleft
Obstructions: 62 ft. trees, 50 ft. from runway, 90 ft. left of centerline, 1:1 slope to clear55 ft. trees, 110 ft. left of centerline

Airport Ownership and Management from official FAA records

Ownership: Publicly-owned
Owner: US FOREST SERVICE
324 25TH ST
OGDEN, UT 84401
Phone 801-625-5511
Manager: IDAHO CITY RANGER DISTRICT
3833 HIGHWAY 21, P BOX 129
IDAHO CITY, ID 83631
Phone (208) 392-6681

Airport Operational Statistics

Aircraft operations: avg 38/week *
75% transient general aviation
20% air taxi
5% military
* for 12-month period ending 25 May 2016

Additional Remarks

A52 NUMEROUS ADDNL OBSTNS ON APCHS TO RWY 04 AND 22.
NO WINTER MAINTENANCE.
USFS HELICOPTER OPNS DURING FIRE SEASON.
NO TELEPHONE AVBL AT ARPT.
WEST 700 FT OF RY IS TURF; REMAINDER IS GRVL.

Instrument Procedures

There are no published instrument procedures at U98.

Some nearby airports with instrument procedures:

KBOI - Boise Air Terminal/Gowen Field (22 nm SW)
KMAN - Nampa Municipal Airport (33 nm SW)
KEUL - Caldwell Industrial Airport (36 nm W)
U76 - Mountain Home Municipal Airport (42 nm S)
KMUO - Mountain Home Air Force Base (47 nm S)
 
Loc | Ops | Rwys | IFR | FBO | Links
Com | Nav | Svcs | Stats | Notes

AirNav Hotels Sweepstakes
 
Area around U98 (Idaho City USFS Airport)
 
Road maps at: MapQuest Bing Google
 
Aerial photo
WARNING: Photo may not be current or correct
Aerial photo of U98 (Idaho City USFS Airport)
Photo by Bob Christensen
Photo taken 20-May-2012
looking north.

Do you have a better or more recent aerial photo of Idaho City USFS Airport that you would like to share? If so, please send us your photo.

 
Sectional chart

 
Airport distance calculator
Flying to Idaho City USFS Airport? Find the distance to fly.

From to U98

Sunrise and sunset
Times for 27-May-2018
 Local
(UTC-6)
 Zulu
(UTC)
Morning civil twilight05:3311:33
Sunrise06:0812:08
Sunset21:1303:13
Evening civil twilight21:4803:48

Current date and time
Zulu (UTC)  27-May-2018 07:56:15
Local (UTC-6)  27-May-2018 01:56:15
 
METAR
KBOI 
23nm SW 
270653Z 25003KT 10SM CLR 12/11 A2993 RMK AO2 SLP119 T01220106 402280122
KMAN 
33nm SW 
270735Z AUTO 31014KT 10SM FEW090 16/08 A2993 RMK A01
KEUL 
35nm W 
270656Z AUTO 27014KT 10SM BKN075 OVC090 15/08 A2995 RMK AO2 SLP128 T01500078 402390111
U76 
42nm S 
SuperAWOS
270655Z AUTO 29007KT 10SM 13/11 A2991
KSNT 
45nm NE 
270651Z AUTO 00000KT 03/03 A3010 RMK AO1 SLP134 T00330028 401830033
TAF
KBOI 
23nm SW 
270520Z 2706/2806 VRB05KT P6SM SCT100 FM271700 31015G25KT P6SM BKN120 FM272300 30020G30KT P6SM BKN100
NOTAMs
Click for the latest NOTAMs
NOTAMs are issued by the DoD/FAA and will open in a separate window not controlled by AirNav.

 

 
 

Would you like to see your business listed on this page?

 If your business provides an interesting product or service to pilots, flight crews, aircraft, or users of the Idaho City USFS Airport, you should consider listing it here.  To start the listing process, click on the button below
 
Add a business
 

Other Pages about Idaho City USFS Airport

Update a link
 
Copyright © AirNav, LLC. All rights reserved. Privacy Policy  Contact